Location: Waldport
(44.4270°N, 124.0680°W)
Time: 07:15:08
(UTC-08:00)

Meteor 1-26 Rocket - Visible Passes

Search period start: 24 January 2017 00:00
Search period end: 03 February 2017 00:00
Orbit: 833 x 902 km, 81.3° (Epoch: 22 January)

Date Brightness Start Highest point End Pass type
(mag) Time Alt. Az. Time Alt. Az. Time Alt. Az.
24 Jan 4.3 19:34:10 10° N 19:39:01 57° NE 19:39:01 57° NE visible
24 Jan 6.7 21:18:50 10° NW 21:21:30 17° WNW 21:21:30 17° WNW visible
25 Jan 7.5 07:09:42 10° E 07:10:57 11° E 07:12:12 10° ENE visible
25 Jan 4.1 19:27:14 10° N 19:32:54 66° ENE 19:34:00 54° SE visible
25 Jan 6.6 21:11:57 10° NW 21:15:32 17° W 21:16:33 17° W visible
26 Jan 7.5 07:02:35 10° E 07:03:59 11° E 07:05:25 10° ENE visible
26 Jan 4.1 19:20:18 10° N 19:25:58 67° ENE 19:31:30 10° SSE visible
26 Jan 6.7 21:05:03 10° NW 21:08:34 17° W 21:12:04 10° WSW visible
27 Jan 7.5 06:55:28 10° E 06:57:03 11° E 06:58:37 10° ENE visible
27 Jan 4.1 19:13:21 10° N 19:19:01 68° ENE 19:24:34 10° SSE visible
27 Jan 6.7 20:58:10 10° NW 21:01:38 17° W 21:05:03 10° WSW visible
28 Jan 7.4 06:48:23 10° E 06:50:06 11° E 06:51:48 10° ENE visible
28 Jan 4.1 19:06:25 10° N 19:12:05 69° ENE 19:17:37 10° SSE visible
28 Jan 6.8 20:51:16 10° NW 20:54:40 17° W 20:58:02 10° WSW visible
29 Jan 7.4 06:41:20 10° E 06:43:09 11° E 06:44:58 10° ENE visible
29 Jan 4.1 18:59:29 10° N 19:05:08 70° ENE 19:10:40 10° SSE visible
29 Jan 6.8 20:44:23 10° NW 20:47:43 16° W 20:51:01 10° WSW visible
30 Jan 7.4 06:34:16 10° E 06:36:12 12° E 06:38:08 10° ENE visible
30 Jan 4.1 18:52:33 10° N 18:58:12 71° ENE 19:03:43 10° SSE visible
30 Jan 6.9 20:37:29 10° NW 20:40:46 16° W 20:44:00 10° WSW visible
31 Jan 7.4 06:27:13 10° E 06:29:15 12° E 06:31:17 10° ENE visible
31 Jan 4.1 18:45:37 10° N 18:51:16 72° ENE 18:56:47 10° SSE visible
31 Jan 6.9 20:30:37 10° NW 20:33:48 16° W 20:36:59 10° WSW visible
01 Feb 7.4 06:20:10 10° ESE 06:22:19 12° E 06:24:26 10° ENE visible
01 Feb 4.1 18:38:40 10° N 18:44:19 73° ENE 18:49:51 10° SSE visible
01 Feb 7.0 20:23:44 10° NW 20:26:51 15° W 20:29:58 10° WSW visible
02 Feb 7.4 06:13:08 10° ESE 06:15:21 12° E 06:17:35 10° ENE visible
02 Feb 4.1 18:31:44 10° N 18:37:22 75° ENE 18:42:54 10° SSE visible
02 Feb 7.1 20:16:50 10° NW 20:19:54 15° W 20:22:56 10° WSW visible
